GW6850 Weather Reports


time (UTC)temp
C
wind
direction
speed
KPH
gust
KPH
rain 1hr
cm
rain 24hr
cm
rain mn
cm
humidity
%
barometer
mb
20260906232508 27 272 6.4 9.7 0.00 0.00 0.00 31 1016.5
20260906232008 27 293 9.7 14.5 0.00 0.00 0.00 31 1016.6
20260906231508 27 288 8.0 11.3 0.00 0.00 0.00 31 1016.6
20260906231008 27 283 6.4 9.7 0.00 0.00 0.00 30 1016.6
20260906230510 28 282 9.7 12.9 0.00 0.00 0.00 29 1016.5
20260906230009 28 283 8.0 11.3 0.00 0.00 0.00 30 1016.5
20260906225509 28 293 12.9 16.1 0.00 0.00 0.00 28 1016.5
20260906225008 28 278 11.3 14.5 0.00 0.00 0.00 30 1016.5
20260906224508 28 281 11.3 19.3 0.00 0.00 0.00 30 1016.6
20260906224008 28 275 9.7 16.1 0.00 0.00 0.00 30 1016.6
20260906223508 29 265 14.5 19.3 0.00 0.00 0.00 28 1016.6
20260906223008 29 293 9.7 14.5 0.00 0.00 0.00 29 1016.5
20260906222508 29 297 9.7 12.9 0.00 0.00 0.00 28 1016.6
20260906222008 28 303 9.7 12.9 0.00 0.00 0.00 29 1016.6
20260906221509 28 279 11.3 14.5 0.00 0.00 0.00 30 1016.6
20260906221008 28 312 12.9 17.7 0.00 0.00 0.00 29 1016.6
20260906220508 27 311 12.9 14.5 0.00 0.00 0.00 30 1016.7
20260906220008 27 306 9.7 11.3 0.00 0.00 0.00 31 1016.7
20260906215508 27 302 12.9 14.5 0.00 0.00 0.00 30 1016.7
20260906215008 27 303 8.0 11.3 0.00 0.00 0.00 32 1016.6
20260906214508 28 306 12.9 16.1 0.00 0.00 0.00 29 1016.5
20260906214008 28 295 9.7 14.5 0.00 0.00 0.00 30 1016.5
20260906213508 28 293 6.4 8.0 0.00 0.00 0.00 31 1016.5
20260906213009 28 323 4.8 8.0 0.00 0.00 0.00 28 1016.6
20260906212508 28 302 4.8 4.8 0.00 0.00 0.00 31 1016.6
20260906212008 28 307 8.0 9.7 0.00 0.00 0.00 29 1016.6
20260906211508 28 315 4.8 6.4 0.00 0.00 0.00 32 1016.7
20260906211008 28 298 8.0 9.7 0.00 0.00 0.00 28 1016.9
20260906210509 29 302 8.0 12.9 0.00 0.00 0.00 28 1016.9
20260906210017 29 323 4.8 6.4 0.00 0.00 0.00 26 1016.9
20260906205508 29 8 6.4 8.0 0.00 0.00 0.00 24 1016.9
20260906205009 29 327 6.4 8.0 0.00 0.00 0.00 25 1016.9
20260906204508 29 319 6.4 8.0 0.00 0.00 0.00 27 1016.9
20260906204008 29 354 3.2 6.4 0.00 0.00 0.00 27 1016.9
20260906203508 29 359 1.6 3.2 0.00 0.00 0.00 29 1017.1
20260906203008 29 358 1.6 3.2 0.00 0.00 0.00 27 1017.2
20260906202508 29 21 1.6 3.2 0.00 0.00 0.00 30 1017.3
20260906202008 29 77 3.2 4.8 0.00 0.00 0.00 29 1017.4
20260906201508 30 65 1.6 6.4 0.00 0.00 0.00 28 1017.5
20260906201008 30 341 3.2 4.8 0.00 0.00 0.00 25 1017.5
20260906200509 29 26 0.0 3.2 0.00 0.00 0.00 26 1017.6
20260906200008 29 358 3.2 3.2 0.00 0.00 0.00 25 1017.6
20260906195508 29 2 3.2 4.8 0.00 0.00 0.00 26 1017.6
20260906195008 29 319 4.8 4.8 0.00 0.00 0.00 25 1017.8
20260906194508 29 311 3.2 6.4 0.00 0.00 0.00 29 1017.8
20260906194008 29 285 4.8 4.8 0.00 0.00 0.00 27 1017.9
20260906193509 29 315 3.2 4.8 0.00 0.00 0.00 27 1017.9
20260906193009 29 340 3.2 4.8 0.00 0.00 0.00 24 1017.9
20260906192508 29 271 3.2 3.2 0.00 0.00 0.00 25 1017.9
20260906192008 29 296 6.4 9.7 0.00 0.00 0.00 25 1018.0
20260906191509 29 268 4.8 8.0 0.00 0.00 0.00 28 1018.1
20260906191008 29 284 3.2 8.0 0.00 0.00 0.00 29 1018.2
20260906190508 29 305 6.4 11.3 0.00 0.00 0.00 28 1018.3
20260906190008 29 336 4.8 8.0 0.00 0.00 0.00 24 1018.3
20260906185508 29 276 6.4 8.0 0.00 0.00 0.00 31 1018.4
20260906185008 29 169 4.8 8.0 0.00 0.00 0.00 25 1018.4
20260906184508 29 290 4.8 8.0 0.00 0.00 0.00 26 1018.6
20260906184008 29 195 3.2 4.8 0.00 0.00 0.00 25 1018.6
20260906183508 28 222 4.8 6.4 0.00 0.00 0.00 29 1018.7
20260906183008 28 298 3.2 4.8 0.00 0.00 0.00 29 1018.7
20260906182508 27 313 1.6 4.8 0.00 0.00 0.00 31 1018.8
20260906182008 27 308 6.4 9.7 0.00 0.00 0.00 33 1019.0
20260906181509 28 256 8.0 9.7 0.00 0.00 0.00 32 1019.1
20260906181008 28 266 3.2 4.8 0.00 0.00 0.00 33 1019.2
20260906180508 27 238 3.2 4.8 0.00 0.00 0.00 30 1019.2
20260906180009 27 329 3.2 4.8 0.00 0.00 0.00 28 1019.4
20260906175508 26 227 4.8 6.4 0.00 0.00 0.00 31 1019.5
20260906175008 26 266 4.8 8.0 0.00 0.00 0.00 32 1019.5
20260906174508 26 135 6.4 8.0 0.00 0.00 0.00 31 1019.6
20260906174008 26 144 3.2 4.8 0.00 0.00 0.00 33 1019.7
20260906173508 26 134 4.8 6.4 0.00 0.00 0.00 30 1019.7
20260906173008 26 264 0.0 1.6 0.00 0.00 0.00 31 1019.8
20260906172508 26 162 4.8 8.0 0.00 0.00 0.00 32 1019.9
20260906172008 26 110 3.2 4.8 0.00 0.00 0.00 32 1019.9
20260906171508 26 142 4.8 6.4 0.00 0.00 0.00 33 1019.9
20260906171008 26 253 3.2 6.4 0.00 0.00 0.00 36 1019.9
20260906170508 25 183 3.2 8.0 0.00 0.00 0.00 36 1020.0
20260906170009 25 145 4.8 6.4 0.00 0.00 0.00 35 1020.0
20260906165508 25 210 3.2 4.8 0.00 0.00 0.00 36 1020.0
20260906165008 25 132 8.0 11.3 0.00 0.00 0.00 32 1020.0
20260906164510 25 148 3.2 6.4 0.00 0.00 0.00 34 1020.0
20260906164008 24 120 6.4 8.0 0.00 0.00 0.00 34 1020.0
20260906163509 24 101 3.2 4.8 0.00 0.00 0.00 39 1020.2
20260906163008 25 198 4.8 8.0 0.00 0.00 0.00 37 1020.2
20260906162508 24 64 3.2 6.4 0.00 0.00 0.00 37 1020.2
20260906162010 24 210 3.2 6.4 0.00 0.00 0.00 37 1020.3
20260906161508 24 93 6.4 11.3 0.00 0.00 0.00 38 1020.2
20260906161008 23 139 4.8 6.4 0.00 0.00 0.00 38 1020.2
20260906160508 23 149 1.6 3.2 0.00 0.00 0.00 39 1020.2
20260906160008 23 112 1.6 3.2 0.00 0.00 0.00 41 1020.3
20260906155508 23 154 3.2 3.2 0.00 0.00 0.00 39 1020.3
20260906155008 23 153 4.8 6.4 0.00 0.00 0.00 41 1020.3
20260906154508 23 214 3.2 6.4 0.00 0.00 0.00 39 1020.3
20260906154008 23 198 3.2 4.8 0.00 0.00 0.00 40 1020.3
20260906153508 22 108 0.0 1.6 0.00 0.00 0.00 42 1020.3
20260906153008 21 153 1.6 4.8 0.00 0.00 0.00 43 1020.4
20260906152508 22 183 3.2 6.4 0.00 0.00 0.00 43 1020.5
20260906152008 22 133 4.8 6.4 0.00 0.00 0.00 40 1020.5
20260906151508 22 196 4.8 8.0 0.00 0.00 0.00 38 1020.4
20260906151008 22 256 1.6 3.2 0.00 0.00 0.00 43 1020.4
20260906150509 21 109 3.2 3.2 0.00 0.00 0.00 41 1020.5
20260906150009 21 159 1.6 3.2 0.00 0.00 0.00 39 1020.5
20260906145508 21 149 3.2 3.2 0.00 0.00 0.00 43 1020.5
20260906145008 21 176 3.2 6.4 0.00 0.00 0.00 42 1020.5
20260906144508 21 139 1.6 3.2 0.00 0.00 0.00 47 1020.5
20260906144008 20 114 3.2 6.4 0.00 0.00 0.00 44 1020.5
20260906143508 20 86 3.2 4.8 0.00 0.00 0.00 45 1020.5
20260906143009 19 115 0.0 3.2 0.00 0.00 0.00 52 1020.5
20260906142509 18 76 1.6 3.2 0.00 0.00 0.00 57 1020.5
20260906142008 17 94 3.2 3.2 0.00 0.00 0.00 62 1020.5
20260906141508 16 322 1.6 3.2 0.00 0.00 0.00 63 1020.5
20260906141008 15 330 1.6 1.6 0.00 0.00 0.00 64 1020.5
20260906140508 15 354 1.6 3.2 0.00 0.00 0.00 66 1020.5
20260906140009 14 323 0.0 1.6 0.00 0.00 0.00 68 1020.5
20260906135509 13 359 1.6 3.2 0.00 0.00 0.00 68 1020.5
20260906135009 12 60 3.2 4.8 0.00 0.00 0.00 70 1020.4
20260906134508 12 50 3.2 3.2 0.00 0.00 0.00 72 1020.4
20260906134008 12 360 1.6 1.6 0.00 0.00 0.00 73 1020.4
20260906133531 12 355 1.6 3.2 0.00 0.00 0.00 73 1020.4
20260906133008 12 16 3.2 4.8 0.00 0.00 0.00 72 1020.3
20260906132508 12 341 1.6 1.6 0.00 0.00 0.00 72 1020.2
20260906132009 12 153 0.0 1.6 0.00 0.00 0.00 72 1020.0
20260906131508 12 109 1.6 3.2 0.00 0.00 0.00 71 1020.0
20260906131008 12 36 3.2 4.8 0.00 0.00 0.00 71 1020.0
20260906130508 11 21 1.6 3.2 0.00 0.00 0.00 72 1019.9
20260906130009 11 37 1.6 3.2 0.00 0.00 0.00 73 1019.9
20260906125508 11 135 3.2 4.8 0.00 0.00 0.00 73 1019.9
20260906125009 11 69 3.2 3.2 0.00 0.00 0.00 74 1019.9
20260906124508 11 27 1.6 3.2 0.00 0.00 0.00 74 1020.0
20260906124008 11 118 0.0 1.6 0.00 0.00 0.00 73 1020.0
20260906123508 11 274 3.2 3.2 0.00 0.00 0.00 73 1020.0
20260906123009 11 346 1.6 1.6 0.00 0.00 0.00 72 1019.7
20260906122509 11 55 1.6 3.2 0.00 0.00 0.00 71 1019.7
20260906122009 11 353 1.6 3.2 0.00 0.00 0.00 72 1019.8
20260906121508 11 140 0.0 1.6 0.00 0.00 0.00 73 1019.7
20260906121008 11 99 3.2 4.8 0.00 0.00 0.00 74 1019.7
20260906120509 11 10 1.6 1.6 0.00 0.00 0.00 76 1019.7
20260906120008 11 76 3.2 3.2 0.00 0.00 0.00 77 1019.7
20260906115509 11 336 0.0 1.6 0.00 0.00 0.00 76 1019.7
20260906115008 11 360 0.0 0.0 0.00 0.00 0.00 76 1019.7
20260906114508 11 51 1.6 3.2 0.00 0.00 0.00 76 1019.7
20260906114008 11 41 1.6 1.6 0.00 0.00 0.00 76 1019.6
20260906113508 11 360 0.0 0.0 0.00 0.00 0.00 76 1019.6
20260906113008 11 342 0.0 1.6 0.00 0.00 0.00 76 1019.6
20260906112509 11 360 0.0 0.0 0.00 0.00 0.00 75 1019.6
20260906112008 11 230 0.0 0.0 0.00 0.00 0.00 75 1019.6
20260906111508 11 225 1.6 1.6 0.00 0.00 0.00 75 1019.6
20260906111008 11 77 0.0 1.6 0.00 0.00 0.00 75 1019.5
20260906110509 11 72 3.2 3.2 0.00 0.00 0.00 75 1019.5
20260906110008 11 40 1.6 1.6 0.00 0.00 0.00 75 1019.4
20260906105509 11 203 0.0 1.6 0.00 0.00 0.00 75 1019.4
20260906105009 11 111 0.0 1.6 0.00 0.00 0.00 75 1019.5
20260906104508 11 251 1.6 3.2 0.00 0.00 0.00 75 1019.5
20260906104009 11 311 1.6 1.6 0.00 0.00 0.00 75 1019.4
20260906103508 11 20 1.6 1.6 0.00 0.00 0.00 75 1019.4
20260906103008 11 86 0.0 1.6 0.00 0.00 0.00 75 1019.2
20260906102508 11 102 0.0 0.0 0.00 0.00 0.00 75 1019.2
20260906102008 11 360 0.0 0.0 0.00 0.00 0.00 75 1019.2
20260906101508 11 67 1.6 3.2 0.00 0.00 0.00 75 1019.2
20260906101008 11 73 1.6 3.2 0.00 0.00 0.00 74 1019.1
20260906100508 11 288 0.0 1.6 0.00 0.00 0.00 74 1019.2
20260906100021 11 360 0.0 0.0 0.00 0.00 0.00 73 1019.2
20260906095509 11 216 0.0 0.0 0.00 0.00 0.00 74 1019.2
20260906095008 11 158 0.0 1.6 0.00 0.00 0.00 73 1019.1
20260906094509 11 285 0.0 0.0 0.00 0.00 0.00 73 1019.0
20260906094009 11 334 0.0 0.0 0.00 0.00 0.00 72 1019.1
20260906093508 12 360 0.0 0.0 0.00 0.00 0.00 71 1019.1
20260906093008 12 34 0.0 0.0 0.00 0.00 0.00 71 1019.0
20260906092509 12 315 1.6 1.6 0.00 0.00 0.00 70 1019.0
20260906092009 12 60 1.6 1.6 0.00 0.00 0.00 69 1019.0
20260906091509 12 322 0.0 0.0 0.00 0.00 0.00 68 1019.1
20260906091008 12 253 0.0 0.0 0.00 0.00 0.00 68 1019.1
20260906090508 12 249 1.6 1.6 0.00 0.00 0.00 68 1019.1
20260906090008 12 114 0.0 1.6 0.00 0.00 0.00 68 1019.1
20260906085508 12 83 0.0 1.6 0.00 0.00 0.00 67 1019.1
20260906085009 12 77 0.0 1.6 0.00 0.00 0.00 67 1019.0
20260906084508 12 70 1.6 3.2 0.00 0.00 0.00 66 1019.1
20260906084008 12 119 3.2 3.2 0.00 0.00 0.00 66 1019.1
20260906083509 12 6 3.2 3.2 0.00 0.00 0.00 65 1019.1
20260906083008 12 97 3.2 3.2 0.00 0.00 0.00 66 1019.1
20260906082508 12 68 1.6 3.2 0.00 0.00 0.00 67 1019.1
20260906082008 12 57 1.6 3.2 0.00 0.00 0.00 67 1019.1
20260906081508 12 54 1.6 3.2 0.00 0.00 0.00 66 1019.2
20260906081008 12 333 1.6 1.6 0.00 0.00 0.00 65 1019.2
20260906080508 12 106 1.6 3.2 0.00 0.00 0.00 65 1019.2
20260906080008 12 349 0.0 1.6 0.00 0.00 0.00 64 1019.1
20260906075509 13 68 3.2 3.2 0.00 0.00 0.00 64 1019.1
20260906075008 13 16 1.6 3.2 0.00 0.00 0.00 64 1019.0
20260906074508 13 68 1.6 3.2 0.00 0.00 0.00 63 1019.0
20260906074009 13 339 1.6 3.2 0.00 0.00 0.00 64 1019.0
20260906073508 13 133 1.6 1.6 0.00 0.00 0.00 64 1019.0
20260906073008 13 92 3.2 3.2 0.00 0.00 0.00 64 1019.1
20260906072509 13 307 0.0 0.0 0.00 0.00 0.00 64 1019.1
20260906072008 13 127 3.2 3.2 0.00 0.00 0.00 65 1019.0
20260906071508 13 141 1.6 1.6 0.00 0.00 0.00 64 1019.1
20260906071017 13 290 1.6 3.2 0.00 0.00 0.00 63 1019.1
20260906070508 13 109 0.0 1.6 0.00 0.00 0.00 63 1019.1
20260906070008 13 360 0.0 0.0 0.00 0.00 0.00 62 1019.1
20260906065509 13 262 0.0 1.6 0.00 0.00 0.00 62 1019.1
20260906065008 13 263 1.6 1.6 0.00 0.00 0.00 62 1019.1
20260906064509 14 276 1.6 3.2 0.00 0.00 0.00 58 1019.0
20260906064008 14 327 0.0 1.6 0.00 0.00 0.00 57 1018.9
20260906063508 14 36 0.0 0.0 0.00 0.00 0.00 58 1019.0
20260906063008 14 92 0.0 1.6 0.00 0.00 0.00 58 1019.0
20260906062508 15 30 3.2 3.2 0.00 0.00 0.00 56 1018.9
20260906062008 15 27 1.6 3.2 0.00 0.00 0.00 55 1018.8
20260906061508 15 10 1.6 1.6 0.00 0.00 0.00 53 1018.8
20260906061008 15 75 1.6 3.2 0.00 0.00 0.00 56 1018.7
20260906060508 15 82 1.6 1.6 0.00 0.00 0.00 54 1018.7
20260906060008 15 33 3.2 4.8 0.00 0.00 0.00 52 1018.7
20260906055511 15 46 1.6 3.2 0.00 0.00 0.00 54 1018.7
20260906055008 15 48 1.6 3.2 0.00 0.00 0.00 55 1018.7
20260906054509 15 53 1.6 1.6 0.00 0.00 0.00 53 1018.7
20260906054008 16 354 1.6 3.2 0.00 0.00 0.00 53 1018.7
20260906053509 16 39 3.2 4.8 0.00 0.00 0.00 51 1018.7
20260906053009 16 53 1.6 1.6 0.00 0.00 0.00 51 1018.7
20260906052511 16 58 1.6 1.6 0.00 0.00 0.00 49 1018.7
20260906052008 16 78 1.6 1.6 0.00 0.00 0.00 49 1018.7
20260906051508 16 55 1.6 3.2 0.00 0.00 0.00 49 1018.6
20260906051009 16 67 1.6 3.2 0.00 0.00 0.00 48 1018.6
20260906050508 16 340 3.2 3.2 0.00 0.00 0.00 47 1018.6
20260906050009 16 59 1.6 3.2 0.00 0.00 0.00 50 1018.6
20260906045510 16 60 3.2 3.2 0.00 0.00 0.00 50 1018.6
20260906045009 16 15 1.6 1.6 0.00 0.00 0.00 48 1018.6
20260906044509 16 2 3.2 3.2 0.00 0.00 0.00 48 1018.4
20260906044008 16 61 3.2 3.2 0.00 0.00 0.00 51 1018.6
20260906043509 17 67 0.0 1.6 0.00 0.00 0.00 51 1018.4
20260906043008 17 69 3.2 3.2 0.00 0.00 0.00 50 1018.4
20260906042508 17 341 1.6 1.6 0.00 0.00 0.00 49 1018.4
20260906042016 17 57 3.2 3.2 0.00 0.00 0.00 49 1018.4
20260906041508 17 69 3.2 3.2 0.00 0.00 0.00 51 1018.4
20260906041008 17 119 0.0 0.0 0.00 0.00 0.00 52 1018.4
20260906040508 17 45 1.6 3.2 0.00 0.00 0.00 51 1018.3
20260906040008 17 19 1.6 1.6 0.00 0.00 0.00 51 1018.3
20260906035508 17 41 1.6 3.2 0.00 0.00 0.00 54 1018.2
20260906035008 18 360 0.0 0.0 0.00 0.00 0.00 54 1018.2
20260906034508 18 49 1.6 1.6 0.00 0.00 0.00 53 1018.2
20260906034008 18 349 0.0 1.6 0.00 0.00 0.00 51 1018.2
20260906033508 18 266 1.6 3.2 0.00 0.00 0.00 50 1018.1
20260906033008 19 41 0.0 1.6 0.00 0.00 0.00 49 1018.1
20260906032508 19 28 0.0 0.0 0.00 0.00 0.00 47 1018.1
20260906032009 20 167 1.6 3.2 0.00 0.00 0.00 50 1018.0
20260906031508 20 68 1.6 3.2 0.00 0.00 0.00 47 1017.9
20260906031008 20 62 1.6 3.2 0.00 0.00 0.00 47 1017.8
20260906030508 21 52 1.6 3.2 0.00 0.00 0.00 43 1017.6
20260906030008 21 42 0.0 1.6 0.00 0.00 0.00 39 1017.6
20260906025508 21 60 1.6 3.2 0.00 0.00 0.00 40 1017.5
20260906025009 21 73 3.2 4.8 0.00 0.00 0.00 41 1017.5
20260906024025 21 59 1.6 4.8 0.00 0.00 0.00 42 1017.4
20260906023508 21 25 0.0 1.6 0.00 0.00 0.00 41 1017.3
20260906023009 21 317 0.0 1.6 0.00 0.00 0.00 43 1017.2
20260906022508 21 248 0.0 0.0 0.00 0.00 0.00 44 1017.2
20260906022008 21 44 0.0 3.2 0.00 0.00 0.00 44 1017.2
20260906021508 22 360 0.0 0.0 0.00 0.00 0.00 44 1017.2
20260906021008 22 324 0.0 1.6 0.00 0.00 0.00 44 1017.1
20260906020509 23 302 0.0 1.6 0.00 0.00 0.00 42 1017.1
20260906020009 23 26 1.6 3.2 0.00 0.00 0.00 41 1017.1
20260906015508 24 335 0.0 1.6 0.00 0.00 0.00 41 1017.1
20260906015008 25 48 1.6 3.2 0.00 0.00 0.00 38 1016.9
20260906014508 26 295 0.0 1.6 0.00 0.00 0.00 39 1016.9
20260906014008 26 57 3.2 3.2 0.00 0.00 0.00 38 1016.9
20260906013509 27 64 3.2 3.2 0.00 0.00 0.00 36 1016.9
20260906013008 28 60 1.6 3.2 0.00 0.00 0.00 33 1016.9
20260906012508 29 205 0.0 1.6 0.00 0.00 0.00 34 1016.9
20260906012008 29 337 1.6 3.2 0.00 0.00 0.00 31 1016.9
20260906011509 30 332 1.6 3.2 0.00 0.00 0.00 30 1016.9
20260906011008 30 340 1.6 3.2 0.00 0.00 0.00 31 1016.9
20260906010509 30 272 1.6 3.2 0.00 0.00 0.00 30 1016.9
20260906010008 31 282 0.0 1.6 0.00 0.00 0.00 32 1016.9
20260906005508 31 251 3.2 3.2 0.00 0.00 0.00 30 1016.9
20260906005009 31 215 0.0 1.6 0.00 0.00 0.00 27 1016.8
20260906004508 31 259 0.0 1.6 0.00 0.00 0.00 27 1016.8
20260906004008 32 342 1.6 4.8 0.00 0.00 0.00 27 1016.8
20260906003508 32 349 1.6 3.2 0.00 0.00 0.00 26 1016.8
20260906003008 31 348 3.2 3.2 0.00 0.00 0.00 23 1016.8
20260906002034 31 273 3.2 6.4 0.00 0.00 0.00 26 1016.8
20260906001508 32 352 4.8 8.0 0.00 0.00 0.00 23 1016.8
20260906001009 32 351 1.6 3.2 0.00 0.00 0.00 26 1016.8
20260906000508 32 318 3.2 6.4 0.00 0.00 0.00 27 1016.8
20260906000008 32 276 4.8 6.4 0.00 0.00 0.00 25 1016.8
20260905235509 32 265 4.8 4.8 0.00 0.00 0.00 28 1016.9
20260905235008 33 214 1.6 3.2 0.00 0.00 0.00 23 1016.8
20260905234508 33 282 3.2 3.2 0.00 0.00 0.00 25 1016.9
20260905234008 33 241 1.6 3.2 0.00 0.00 0.00 26 1016.9
20260905233508 33 326 1.6 3.2 0.00 0.00 0.00 22 1016.9
20260905233008 32 277 3.2 3.2 0.00 0.00 0.00 28 1016.9